Regional Weather Roundup
Issued by NWS

Home | Current Version | Previous Version | Text Only | Print | Product List | Glossary Off
Versions: 1 2 3 4 5 6 7 8 9 10 11 12 13 14 15 16 17 18 19 20 21 22 23 24 25 26 27 28 29 30 31 32 33 34 35 36 37 38 39 40 41 42 43 44 45 46 47 48 49 50

000
ASUS43 KFSD 021702
RWRSD

WEATHER ROUNDUP FOR SOUTH DAKOTA
NATIONAL WEATHER SERVICE SIOUX FALLS SD
1200 PM CDT THU OCT 02 2014

NOTE: "FAIR" INDICATES FEW OR NO CLOUDS BELOW 12,000 FEET WITH NO
SIGNIFICANT WEATHER AND/OR OBSTRUCTIONS TO VISIBILITY.


SDZ001>005-009-010-012>017-021800-
NORTHWEST AND NORTH CENTRAL SOUTH DAKOTA

CITY           SKY/WX    TMP DP  RH WIND       PRES   REMARKS
BUFFALO          N/A     58  32  37 W22       29.86F
FAITH            N/A     59  37  44 W22       29.92S
MOBRIDGE       SUNNY     64  44  48 W8        29.86F
$$

SDZ012>016-024>037-041>051-057-063-072>074-021800-
SOUTHWEST AND SOUTH CENTRAL SOUTH DAKOTA

CITY           SKY/WX    TMP DP  RH WIND       PRES   REMARKS
RAPID CTY ARPT SUNNY     62  30  29 VRB5      29.96F
PIERRE         SUNNY     60  45  57 VRB6      29.91F
CUSTER         SUNNY     50  30  46 SW9       30.01F
ELLSWORTH AFB  SUNNY     61  31  31 NW7       29.96F
PHILIP         SUNNY     63  42  46 W10       29.94F
PINE RIDGE     SUNNY     56  43  61 W9        30.01F
WINNER         FAIR      61  44  53 NW12      29.95F
$$

SDZ004>011-016>023-039-040-021800-
NORTHEAST SOUTH DAKOTA

CITY           SKY/WX    TMP DP  RH WIND       PRES   REMARKS
ABERDEEN       MOSUNNY   63  46  54 W8        29.88F
WATERTOWN      PTSUNNY   56  50  80 CALM      29.87F
SISSETON         N/A     64  46  52 NW8       29.85F
$$

SDZ017-020-022-023-036>040-048>070-021800-
SOUTHEAST SOUTH DAKOTA

CITY           SKY/WX    TMP DP  RH WIND       PRES   REMARKS
SIOUX FALLS    LGT RAIN  56  52  86 N6        29.89F
HURON          MOSUNNY   63  48  58 NW12      29.88F
CHAMBERLAIN    SUNNY     61  46  58 NW10      29.92F
MITCHELL       MOSUNNY   60  52  74 VRB7      29.90F
YANKTON        CLOUDY    55  52  88 NW9       29.91S
$$

ABBREVIATIONS USED IN REMARKS
   TC - TEMPERATURE IN CELSIUS
  WCI - WIND CHILL INDEX
   HX - HEAT INDEX
  VSB - VISIBILITY




USA.gov is the U.S. government's official web portal to all federal, state and local government web resources and services.